Time,TemperatureF,DewpointF,PressureIn,WindDirection,WindDirectionDegrees,WindSpeedMPH,WindSpeedGustMPH,Humidity,HourlyPrecipIn,Conditions,Clouds,dailyrainin,SoftwareType,DateUTC
2013-06-22 00:01:00,81.6,66.7,28.52,SSE,157,16.1,24.5,61,0.00,,,0.00,Rainwise IP-100,2013-06-22 05:01:00,
2013-06-22 00:06:00,81.5,66.7,28.52,SSE,157,14.2,21.7,61,0.00,,,0.00,Rainwise IP-100,2013-06-22 05:06:00,
2013-06-22 00:11:00,81.5,67.5,28.52,SSE,157,13.8,24.7,62,0.00,,,0.00,Rainwise IP-100,2013-06-22 05:11:00,
2013-06-22 00:16:00,81.4,67.5,28.52,SSE,157,10.0,19.8,63,0.00,,,0.00,Rainwise IP-100,2013-06-22 05:16:00,
2013-06-22 00:21:00,81.2,67.5,28.52,SSE,157,16.1,24.0,63,0.00,,,0.00,Rainwise IP-100,2013-06-22 05:21:00,
2013-06-22 00:26:00,81.1,67.5,28.52,SSE,157,21.0,22.2,64,0.00,,,0.00,Rainwise IP-100,2013-06-22 05:26:00,
2013-06-22 00:32:00,80.9,68.5,28.52,SSE,157,16.1,21.0,65,0.00,,,0.00,Rainwise IP-100,2013-06-22 05:32:00,
2013-06-22 00:37:00,80.9,68.5,28.52,SSE,157,14.0,18.2,65,0.00,,,0.00,Rainwise IP-100,2013-06-22 05:37:00,
2013-06-22 00:42:00,80.7,68.0,28.52,SSE,157,17.5,18.4,65,0.00,,,0.00,Rainwise IP-100,2013-06-22 05:42:00,
2013-06-22 00:47:00,80.6,67.5,28.52,SE,135,13.3,17.7,65,0.00,,,0.00,Rainwise IP-100,2013-06-22 05:47:00,
2013-06-22 00:52:00,80.4,68.0,28.52,SSE,157,8.6,19.8,66,0.00,,,0.00,Rainwise IP-100,2013-06-22 05:52:00,
2013-06-22 00:57:00,80.2,68.0,28.52,SE,135,14.2,17.0,66,0.00,,,0.00,Rainwise IP-100,2013-06-22 05:57:00,
2013-06-22 01:02:00,79.9,68.0,28.52,SSE,157,8.4,17.5,67,0.00,,,0.00,Rainwise IP-100,2013-06-22 06:02:00,
2013-06-22 01:07:00,79.7,67.5,28.51,SE,135,12.8,20.5,67,0.00,,,0.00,Rainwise IP-100,2013-06-22 06:07:00,
2013-06-22 01:12:00,79.6,67.5,28.51,SE,135,10.3,19.1,67,0.00,,,0.00,Rainwise IP-100,2013-06-22 06:12:00,
2013-06-22 01:17:00,79.4,68.0,28.51,SSE,157,11.0,20.1,68,0.00,,,0.00,Rainwise IP-100,2013-06-22 06:17:00,
2013-06-22 01:22:00,79.2,68.0,28.52,SSE,157,10.7,20.1,68,0.00,,,0.00,Rainwise IP-100,2013-06-22 06:22:00,
2013-06-22 01:27:00,79.1,67.5,28.51,SSE,157,9.3,18.7,68,0.00,,,0.00,Rainwise IP-100,2013-06-22 06:27:00,
2013-06-22 01:33:00,78.9,67.5,28.51,SSE,157,11.0,17.7,68,0.00,,,0.00,Rainwise IP-100,2013-06-22 06:33:00,
2013-06-22 01:38:00,78.8,67.5,28.51,SE,135,13.1,18.9,69,0.00,,,0.00,Rainwise IP-100,2013-06-22 06:38:00,
2013-06-22 01:43:00,78.8,67.5,28.51,SSE,157,14.0,18.9,69,0.00,,,0.00,Rainwise IP-100,2013-06-22 06:43:00,
2013-06-22 01:48:00,78.8,67.5,28.50,SSE,157,16.8,23.1,69,0.00,,,0.00,Rainwise IP-100,2013-06-22 06:48:00,
2013-06-22 01:53:00,78.7,67.5,28.50,South,180,12.6,23.3,69,0.00,,,0.00,Rainwise IP-100,2013-06-22 06:53:00,
2013-06-22 01:58:00,78.6,67.5,28.51,SSE,157,12.1,18.0,69,0.00,,,0.00,Rainwise IP-100,2013-06-22 06:58:00,
2013-06-22 02:03:00,78.6,67.5,28.50,SSE,157,7.5,18.4,69,0.00,,,0.00,Rainwise IP-100,2013-06-22 07:03:00,
2013-06-22 02:08:00,78.6,67.5,28.51,SSE,157,11.2,21.0,69,0.00,,,0.00,Rainwise IP-100,2013-06-22 07:08:00,
2013-06-22 02:13:00,78.5,68.0,28.52,SE,135,10.7,17.3,70,0.00,,,0.00,Rainwise IP-100,2013-06-22 07:13:00,
2013-06-22 02:18:00,78.4,68.0,28.51,SSE,157,14.5,18.7,70,0.00,,,0.00,Rainwise IP-100,2013-06-22 07:18:00,
2013-06-22 02:23:00,78.2,68.0,28.51,SSE,157,17.7,18.7,70,0.00,,,0.00,Rainwise IP-100,2013-06-22 07:23:00,
2013-06-22 02:28:00,78.1,67.5,28.51,SSE,157,10.0,19.8,70,0.00,,,0.00,Rainwise IP-100,2013-06-22 07:28:00,
2013-06-22 02:34:00,78.0,68.0,28.51,South,180,12.8,18.0,71,0.00,,,0.00,Rainwise IP-100,2013-06-22 07:34:00,
2013-06-22 02:39:00,77.9,68.0,28.51,SSE,157,7.9,18.4,71,0.00,,,0.00,Rainwise IP-100,2013-06-22 07:39:00,
2013-06-22 02:44:00,77.9,68.0,28.51,SSE,157,15.4,18.4,71,0.00,,,0.00,Rainwise IP-100,2013-06-22 07:44:00,
2013-06-22 02:49:00,77.9,68.0,28.51,SSE,157,10.3,18.7,71,0.00,,,0.00,Rainwise IP-100,2013-06-22 07:49:00,
2013-06-22 02:54:00,77.9,67.5,28.51,SSE,157,13.5,19.8,70,0.00,,,0.00,Rainwise IP-100,2013-06-22 07:54:00,
2013-06-22 02:59:00,77.9,67.5,28.51,SSE,157,12.1,21.0,70,0.00,,,0.00,Rainwise IP-100,2013-06-22 07:59:00,
2013-06-22 03:04:00,78.0,67.0,28.50,SSE,157,13.1,20.3,69,0.00,,,0.00,Rainwise IP-100,2013-06-22 08:04:00,
2013-06-22 03:09:00,78.0,67.0,28.50,SSE,157,11.9,20.1,69,0.00,,,0.00,Rainwise IP-100,2013-06-22 08:09:00,
2013-06-22 03:14:00,77.9,67.5,28.50,SSE,157,13.1,18.0,70,0.00,,,0.00,Rainwise IP-100,2013-06-22 08:14:00,
2013-06-22 03:19:00,77.8,67.0,28.50,SSE,157,11.7,19.8,70,0.00,,,0.00,Rainwise IP-100,2013-06-22 08:19:00,
2013-06-22 03:24:00,77.7,67.0,28.50,SSE,157,11.9,19.1,70,0.00,,,0.00,Rainwise IP-100,2013-06-22 08:24:00,
2013-06-22 03:29:00,77.5,67.0,28.50,SSE,157,12.8,20.5,70,0.00,,,0.00,Rainwise IP-100,2013-06-22 08:29:00,
2013-06-22 03:35:00,77.4,67.0,28.50,South,180,9.1,19.6,71,0.00,,,0.00,Rainwise IP-100,2013-06-22 08:35:00,
2013-06-22 03:40:00,77.2,67.0,28.50,South,180,10.0,22.2,71,0.00,,,0.00,Rainwise IP-100,2013-06-22 08:40:00,
2013-06-22 03:45:00,77.1,67.0,28.50,SSE,157,11.4,18.4,71,0.00,,,0.00,Rainwise IP-100,2013-06-22 08:45:00,
2013-06-22 03:50:00,77.0,67.5,28.50,SSE,157,11.7,19.4,72,0.00,,,0.00,Rainwise IP-100,2013-06-22 08:50:00,
2013-06-22 03:55:00,76.9,67.5,28.50,SSE,157,7.9,17.3,72,0.00,,,0.00,Rainwise IP-100,2013-06-22 08:55:00,
2013-06-22 04:00:00,76.8,67.0,28.51,SSE,157,6.8,15.9,72,0.00,,,0.00,Rainwise IP-100,2013-06-22 09:00:00,
2013-06-22 04:05:00,76.7,67.0,28.50,SSE,157,8.2,15.4,72,0.00,,,0.00,Rainwise IP-100,2013-06-22 09:05:00,
2013-06-22 04:10:00,76.7,67.5,28.50,SSE,157,8.9,17.0,73,0.00,,,0.00,Rainwise IP-100,2013-06-22 09:10:00,
2013-06-22 04:15:00,76.6,67.0,28.50,SSE,157,12.4,15.6,73,0.00,,,0.00,Rainwise IP-100,2013-06-22 09:15:00,
2013-06-22 04:20:00,76.5,67.0,28.50,SSE,157,10.3,17.5,73,0.00,,,0.00,Rainwise IP-100,2013-06-22 09:20:00,
2013-06-22 04:25:00,76.4,67.0,28.50,South,180,10.3,14.5,73,0.00,,,0.00,Rainwise IP-100,2013-06-22 09:25:00,
2013-06-22 04:30:00,76.4,67.0,28.50,SSE,157,6.3,17.0,73,0.00,,,0.00,Rainwise IP-100,2013-06-22 09:30:00,
2013-06-22 04:36:00,76.4,67.0,28.50,SSE,157,13.1,15.9,73,0.00,,,0.00,Rainwise IP-100,2013-06-22 09:36:00,
2013-06-22 04:41:00,76.4,66.7,28.50,SSE,157,13.5,17.5,72,0.00,,,0.00,Rainwise IP-100,2013-06-22 09:41:00,
2013-06-22 04:46:00,76.4,66.7,28.50,SSE,157,14.0,16.6,72,0.00,,,0.00,Rainwise IP-100,2013-06-22 09:46:00,
2013-06-22 04:51:00,76.4,66.7,28.50,SSE,157,12.8,17.3,72,0.00,,,0.00,Rainwise IP-100,2013-06-22 09:51:00,
2013-06-22 04:56:00,76.4,66.7,28.50,SSE,157,14.2,17.3,72,0.00,,,0.00,Rainwise IP-100,2013-06-22 09:56:00,
2013-06-22 05:01:00,76.4,66.3,28.50,SSE,157,11.2,17.5,71,0.00,,,0.00,Rainwise IP-100,2013-06-22 10:01:00,
2013-06-22 05:06:00,76.5,66.3,28.50,SSE,157,10.5,17.7,71,0.00,,,0.00,Rainwise IP-100,2013-06-22 10:06:00,
2013-06-22 05:11:00,76.6,66.3,28.50,SSE,157,13.1,18.0,71,0.00,,,0.00,Rainwise IP-100,2013-06-22 10:11:00,
2013-06-22 05:16:00,76.7,66.7,28.50,SSE,157,11.9,20.3,71,0.00,,,0.00,Rainwise IP-100,2013-06-22 10:16:00,
2013-06-22 05:21:00,76.7,66.7,28.50,South,180,14.7,20.3,71,0.00,,,0.00,Rainwise IP-100,2013-06-22 10:21:00,
2013-06-22 05:26:00,76.5,66.3,28.50,SSE,157,14.0,17.5,71,0.00,,,0.00,Rainwise IP-100,2013-06-22 10:26:00,
2013-06-22 05:31:00,76.4,66.7,28.50,SSE,157,17.3,22.6,72,0.00,,,0.00,Rainwise IP-100,2013-06-22 10:31:00,
2013-06-22 05:37:00,76.3,66.7,28.50,SSE,157,11.2,18.4,72,0.00,,,0.00,Rainwise IP-100,2013-06-22 10:37:00,
2013-06-22 05:42:00,76.2,66.7,28.51,SSE,157,12.8,18.2,72,0.00,,,0.00,Rainwise IP-100,2013-06-22 10:42:00,
2013-06-22 05:47:00,76.0,66.3,28.51,SSE,157,13.1,20.8,72,0.00,,,0.00,Rainwise IP-100,2013-06-22 10:47:00,
2013-06-22 05:52:00,75.9,66.7,28.51,SSE,157,12.8,15.9,73,0.00,,,0.00,Rainwise IP-100,2013-06-22 10:52:00,
2013-06-22 05:57:00,75.7,66.3,28.51,SSE,157,10.7,15.2,73,0.00,,,0.00,Rainwise IP-100,2013-06-22 10:57:00,
2013-06-22 06:03:00,75.5,66.7,28.51,South,180,15.9,16.8,74,0.00,,,0.00,Rainwise IP-100,2013-06-22 11:03:00,
2013-06-22 06:08:00,75.5,66.7,28.51,SSE,157,11.9,18.7,74,0.00,,,0.00,Rainwise IP-100,2013-06-22 11:08:00,
2013-06-22 06:13:00,75.5,66.7,28.52,SSE,157,11.7,18.7,74,0.00,,,0.00,Rainwise IP-100,2013-06-22 11:13:00,
2013-06-22 06:18:00,75.4,66.7,28.52,SSE,157,12.4,18.0,74,0.00,,,0.00,Rainwise IP-100,2013-06-22 11:18:00,
2013-06-22 06:23:00,75.4,66.7,28.52,SSE,157,11.4,15.6,74,0.00,,,0.00,Rainwise IP-100,2013-06-22 11:23:00,
2013-06-22 06:28:00,75.3,66.7,28.52,SSE,157,17.0,17.0,74,0.00,,,0.00,Rainwise IP-100,2013-06-22 11:28:00,
2013-06-22 06:33:00,75.2,66.3,28.51,SE,135,8.6,18.9,74,0.00,,,0.00,Rainwise IP-100,2013-06-22 11:33:00,
2013-06-22 06:39:00,75.3,66.7,28.52,SSE,157,14.0,15.9,74,0.00,,,0.00,Rainwise IP-100,2013-06-22 11:39:00,
2013-06-22 06:44:00,75.3,66.7,28.52,SSE,157,14.9,19.1,74,0.00,,,0.00,Rainwise IP-100,2013-06-22 11:44:00,
2013-06-22 06:49:00,75.5,66.3,28.52,South,180,15.4,18.4,73,0.00,,,0.00,Rainwise IP-100,2013-06-22 11:49:00,
2013-06-22 06:54:00,75.8,66.7,28.51,South,180,14.5,20.8,73,0.00,,,0.00,Rainwise IP-100,2013-06-22 11:54:00,
2013-06-22 06:59:00,76.0,66.3,28.52,South,180,13.5,17.7,72,0.00,,,0.00,Rainwise IP-100,2013-06-22 11:59:00,
2013-06-22 07:04:00,76.2,66.7,28.52,SSE,157,9.8,20.3,72,0.00,,,0.00,Rainwise IP-100,2013-06-22 12:04:00,
2013-06-22 07:09:00,76.4,66.3,28.52,South,180,9.6,19.6,71,0.00,,,0.00,Rainwise IP-100,2013-06-22 12:09:00,
2013-06-22 07:14:00,76.7,66.7,28.52,SSE,157,13.8,18.4,71,0.00,,,0.00,Rainwise IP-100,2013-06-22 12:14:00,
2013-06-22 07:19:00,76.9,66.7,28.52,South,180,11.9,20.3,70,0.00,,,0.00,Rainwise IP-100,2013-06-22 12:19:00,
2013-06-22 07:24:00,77.0,66.7,28.52,South,180,12.8,16.6,70,0.00,,,0.00,Rainwise IP-100,2013-06-22 12:24:00,
2013-06-22 07:29:00,77.2,66.7,28.52,SSE,157,12.4,19.8,69,0.00,,,0.00,Rainwise IP-100,2013-06-22 12:29:00,
2013-06-22 07:34:00,77.4,66.7,28.52,SSE,157,13.8,18.4,69,0.00,,,0.00,Rainwise IP-100,2013-06-22 12:34:00,
2013-06-22 07:40:00,77.5,66.7,28.52,South,180,11.9,20.1,69,0.00,,,0.00,Rainwise IP-100,2013-06-22 12:40:00,
2013-06-22 07:45:00,77.7,66.3,28.53,SSE,157,11.4,21.7,68,0.00,,,0.00,Rainwise IP-100,2013-06-22 12:45:00,
2013-06-22 07:50:00,77.9,66.7,28.52,South,180,8.6,23.6,68,0.00,,,0.00,Rainwise IP-100,2013-06-22 12:50:00,
2013-06-22 07:55:00,78.2,66.7,28.52,South,180,10.0,22.2,67,0.00,,,0.00,Rainwise IP-100,2013-06-22 12:55:00,
2013-06-22 08:00:00,78.5,66.3,28.52,South,180,14.9,19.8,66,0.00,,,0.00,Rainwise IP-100,2013-06-22 13:00:00,
2013-06-22 08:05:00,78.8,66.3,28.52,South,180,12.1,20.5,66,0.00,,,0.00,Rainwise IP-100,2013-06-22 13:05:00,
2013-06-22 08:10:00,79.1,66.3,28.52,SSE,157,16.1,23.1,65,0.00,,,0.00,Rainwise IP-100,2013-06-22 13:10:00,
2013-06-22 08:15:00,79.3,66.3,28.52,SSE,157,19.1,22.2,64,0.00,,,0.00,Rainwise IP-100,2013-06-22 13:15:00,
2013-06-22 08:20:00,79.5,66.3,28.52,South,180,11.9,24.5,64,0.00,,,0.00,Rainwise IP-100,2013-06-22 13:20:00,
2013-06-22 08:25:00,79.8,66.0,28.52,SSE,157,10.5,22.9,63,0.00,,,0.00,Rainwise IP-100,2013-06-22 13:25:00,
2013-06-22 08:30:00,80.3,66.7,28.52,South,180,11.4,21.0,63,0.00,,,0.00,Rainwise IP-100,2013-06-22 13:30:00,
2013-06-22 08:35:00,80.7,66.7,28.52,SSW,202,11.2,23.3,62,0.00,,,0.00,Rainwise IP-100,2013-06-22 13:35:00,
2013-06-22 08:41:00,81.1,66.3,28.52,South,180,14.7,21.0,61,0.00,,,0.00,Rainwise IP-100,2013-06-22 13:41:00,
2013-06-22 08:46:00,81.4,66.3,28.52,South,180,21.9,24.2,60,0.00,,,0.00,Rainwise IP-100,2013-06-22 13:46:00,
2013-06-22 08:51:00,81.8,66.0,28.52,South,180,15.9,22.9,59,0.00,,,0.00,Rainwise IP-100,2013-06-22 13:51:00,
2013-06-22 08:56:00,82.2,66.0,28.53,South,180,21.5,24.2,58,0.00,,,0.00,Rainwise IP-100,2013-06-22 13:56:00,
2013-06-22 09:01:00,82.3,66.0,28.52,South,180,21.9,25.6,58,0.00,,,0.00,Rainwise IP-100,2013-06-22 14:01:00,
2013-06-22 09:06:00,82.5,66.0,28.52,South,180,18.7,28.4,57,0.00,,,0.00,Rainwise IP-100,2013-06-22 14:06:00,
2013-06-22 09:11:00,82.6,65.5,28.52,SSW,202,15.4,23.1,56,0.00,,,0.00,Rainwise IP-100,2013-06-22 14:11:00,
2013-06-22 09:16:00,82.8,65.5,28.52,South,180,22.6,25.9,56,0.00,,,0.00,Rainwise IP-100,2013-06-22 14:16:00,
2013-06-22 09:21:00,82.8,65.0,28.52,SSE,157,17.0,25.6,55,0.00,,,0.00,Rainwise IP-100,2013-06-22 14:21:00,
2013-06-22 09:26:00,82.7,65.0,28.52,SSW,202,11.9,25.6,55,0.00,,,0.00,Rainwise IP-100,2013-06-22 14:26:00,
2013-06-22 09:31:00,82.7,65.0,28.52,South,180,16.3,26.3,55,0.00,,,0.00,Rainwise IP-100,2013-06-22 14:31:00,
2013-06-22 09:36:00,82.8,65.0,28.52,South,180,12.8,26.6,55,0.00,,,0.00,Rainwise IP-100,2013-06-22 14:36:00,
2013-06-22 09:42:00,82.7,65.0,28.52,South,180,18.2,26.3,55,0.00,,,0.00,Rainwise IP-100,2013-06-22 14:42:00,
2013-06-22 09:47:00,82.7,65.0,28.52,SSE,157,15.2,24.5,55,0.00,,,0.00,Rainwise IP-100,2013-06-22 14:47:00,
2013-06-22 09:52:00,82.8,65.5,28.52,South,180,15.9,26.8,56,0.00,,,0.00,Rainwise IP-100,2013-06-22 14:52:00,
2013-06-22 09:57:00,82.9,65.5,28.52,South,180,19.4,22.6,55,0.00,,,0.00,Rainwise IP-100,2013-06-22 14:57:00,
2013-06-22 10:02:00,83.0,65.5,28.52,South,180,17.7,25.4,55,0.00,,,0.00,Rainwise IP-100,2013-06-22 15:02:00,
2013-06-22 10:08:00,82.8,65.5,28.51,South,180,19.6,24.5,56,0.00,,,0.00,Rainwise IP-100,2013-06-22 15:08:00,
2013-06-22 10:13:00,82.7,65.5,28.50,South,180,22.2,25.6,56,0.00,,,0.00,Rainwise IP-100,2013-06-22 15:13:00,
2013-06-22 10:18:00,82.8,65.5,28.51,SSE,157,15.2,26.1,56,0.00,,,0.00,Rainwise IP-100,2013-06-22 15:18:00,
2013-06-22 10:23:00,83.0,66.0,28.51,SSE,157,21.0,22.2,56,0.00,,,0.00,Rainwise IP-100,2013-06-22 15:23:00,
2013-06-22 10:28:00,83.0,66.0,28.51,SSE,157,18.0,24.0,56,0.00,,,0.00,Rainwise IP-100,2013-06-22 15:28:00,
2013-06-22 10:33:00,82.8,65.5,28.51,SSE,157,21.9,22.4,56,0.00,,,0.00,Rainwise IP-100,2013-06-22 15:33:00,
2013-06-22 10:39:00,82.8,66.0,28.51,SSE,157,16.1,23.6,57,0.00,,,0.00,Rainwise IP-100,2013-06-22 15:39:00,
2013-06-22 10:44:00,83.1,66.0,28.50,SSE,157,20.8,24.9,56,0.00,,,0.00,Rainwise IP-100,2013-06-22 15:44:00,
2013-06-22 10:49:00,83.2,66.0,28.51,SSE,157,20.5,23.3,56,0.00,,,0.00,Rainwise IP-100,2013-06-22 15:49:00,
2013-06-22 10:54:00,83.1,66.0,28.51,SSE,157,16.6,24.2,56,0.00,,,0.00,Rainwise IP-100,2013-06-22 15:54:00,
2013-06-22 10:59:00,83.1,66.0,28.52,SSE,157,17.0,22.4,56,0.00,,,0.00,Rainwise IP-100,2013-06-22 15:59:00,
2013-06-22 11:04:00,83.2,66.0,28.51,SSE,157,17.3,21.7,56,0.00,,,0.00,Rainwise IP-100,2013-06-22 16:04:00,
2013-06-22 11:09:00,83.3,66.0,28.52,SSE,157,15.9,21.7,56,0.00,,,0.00,Rainwise IP-100,2013-06-22 16:09:00,
2013-06-22 11:14:00,83.5,66.0,28.51,SSE,157,17.3,20.3,55,0.00,,,0.00,Rainwise IP-100,2013-06-22 16:14:00,
2013-06-22 11:19:00,83.9,66.0,28.52,SSE,157,18.4,23.8,54,0.00,,,0.00,Rainwise IP-100,2013-06-22 16:19:00,
2013-06-22 11:24:00,84.4,65.0,28.52,SSE,157,17.0,25.4,52,0.00,,,0.00,Rainwise IP-100,2013-06-22 16:24:00,
2013-06-22 11:29:00,85.1,65.0,28.52,SSE,157,16.6,30.3,51,0.00,,,0.00,Rainwise IP-100,2013-06-22 16:29:00,
2013-06-22 11:34:00,86.0,65.5,28.51,South,180,16.1,30.3,50,0.00,,,0.00,Rainwise IP-100,2013-06-22 16:34:00,
2013-06-22 11:40:00,86.9,65.0,28.52,South,180,18.2,26.8,48,0.00,,,0.00,Rainwise IP-100,2013-06-22 16:40:00,
2013-06-22 11:45:00,87.7,65.5,28.51,SSE,157,13.5,26.1,47,0.00,,,0.00,Rainwise IP-100,2013-06-22 16:45:00,
2013-06-22 11:50:00,88.1,65.0,28.51,SSE,157,18.2,29.1,46,0.00,,,0.00,Rainwise IP-100,2013-06-22 16:50:00,
2013-06-22 11:55:00,88.4,64.5,28.51,SSE,157,24.5,31.9,45,0.00,,,0.00,Rainwise IP-100,2013-06-22 16:55:00,
2013-06-22 12:00:00,88.7,64.0,28.52,South,180,20.8,29.4,44,0.00,,,0.00,Rainwise IP-100,2013-06-22 17:00:00,
2013-06-22 12:05:00,89.0,64.5,28.52,South,180,18.0,29.1,44,0.00,,,0.00,Rainwise IP-100,2013-06-22 17:05:00,
2013-06-22 12:10:00,89.5,65.0,28.52,South,180,13.8,29.6,44,0.00,,,0.00,Rainwise IP-100,2013-06-22 17:10:00,
2013-06-22 12:15:00,89.8,65.0,28.51,SE,135,14.0,24.7,44,0.00,,,0.00,Rainwise IP-100,2013-06-22 17:15:00,
2013-06-22 12:20:00,90.0,64.5,28.51,South,180,14.5,30.3,43,0.00,,,0.00,Rainwise IP-100,2013-06-22 17:20:00,
2013-06-22 12:25:00,90.3,64.0,28.50,South,180,26.3,27.3,42,0.00,,,0.00,Rainwise IP-100,2013-06-22 17:25:00,
2013-06-22 12:30:00,90.5,64.5,28.51,South,180,26.6,33.1,42,0.00,,,0.00,Rainwise IP-100,2013-06-22 17:30:00,
2013-06-22 12:35:00,90.7,64.0,28.50,SSE,157,19.4,28.2,41,0.00,,,0.00,Rainwise IP-100,2013-06-22 17:35:00,
2013-06-22 12:41:00,90.9,64.0,28.50,SSE,157,23.1,24.0,41,0.00,,,0.00,Rainwise IP-100,2013-06-22 17:41:00,
2013-06-22 12:46:00,91.3,64.5,28.50,SSE,157,19.4,32.2,41,0.00,,,0.00,Rainwise IP-100,2013-06-22 17:46:00,
2013-06-22 12:51:00,91.4,64.0,28.50,SSE,157,20.5,31.2,40,0.00,,,0.00,Rainwise IP-100,2013-06-22 17:51:00,
2013-06-22 12:56:00,91.8,64.0,28.50,SSE,157,21.0,28.4,40,0.00,,,0.00,Rainwise IP-100,2013-06-22 17:56:00,
2013-06-22 13:01:00,91.8,64.0,28.50,South,180,18.0,29.6,40,0.00,,,0.00,Rainwise IP-100,2013-06-22 18:01:00,
2013-06-22 13:06:00,91.8,64.0,28.50,SE,135,16.8,29.1,40,0.00,,,0.00,Rainwise IP-100,2013-06-22 18:06:00,
2013-06-22 13:11:00,91.7,64.0,28.50,SSE,157,14.0,26.1,40,0.00,,,0.00,Rainwise IP-100,2013-06-22 18:11:00,
2013-06-22 13:16:00,91.8,64.0,28.50,SE,135,21.2,26.6,40,0.00,,,0.00,Rainwise IP-100,2013-06-22 18:16:00,
2013-06-22 13:21:00,92.2,64.5,28.48,SSE,157,18.0,30.8,40,0.00,,,0.00,Rainwise IP-100,2013-06-22 18:21:00,
2013-06-22 13:26:00,92.5,64.0,28.48,South,180,18.2,31.7,39,0.00,,,0.00,Rainwise IP-100,2013-06-22 18:26:00,
2013-06-22 13:31:00,92.8,63.5,28.48,South,180,21.0,29.6,38,0.00,,,0.00,Rainwise IP-100,2013-06-22 18:31:00,
2013-06-22 13:37:00,92.9,63.5,28.48,SE,135,12.8,28.7,38,0.00,,,0.00,Rainwise IP-100,2013-06-22 18:37:00,
2013-06-22 13:42:00,93.2,64.0,28.48,SSE,157,14.0,26.3,38,0.00,,,0.00,Rainwise IP-100,2013-06-22 18:42:00,
2013-06-22 13:47:00,93.4,64.0,28.48,South,180,20.5,29.1,38,0.00,,,0.00,Rainwise IP-100,2013-06-22 18:47:00,
2013-06-22 13:52:00,93.8,63.5,28.48,SSE,157,16.1,31.5,37,0.00,,,0.00,Rainwise IP-100,2013-06-22 18:52:00,
2013-06-22 13:57:00,93.9,64.0,28.47,SSE,157,22.6,32.2,37,0.00,,,0.00,Rainwise IP-100,2013-06-22 18:57:00,
2013-06-22 14:02:00,93.7,63.5,28.47,SSE,157,23.6,26.1,37,0.00,,,0.00,Rainwise IP-100,2013-06-22 19:02:00,
2013-06-22 14:07:00,93.7,63.5,28.47,SE,135,13.8,27.3,37,0.00,,,0.00,Rainwise IP-100,2013-06-22 19:07:00,
2013-06-22 14:12:00,93.9,64.0,28.46,SSE,157,22.2,26.3,37,0.00,,,0.00,Rainwise IP-100,2013-06-22 19:12:00,
2013-06-22 14:17:00,93.9,64.0,28.46,SE,135,14.2,28.9,37,0.00,,,0.00,Rainwise IP-100,2013-06-22 19:17:00,
2013-06-22 14:22:00,93.8,63.5,28.46,SSE,157,20.8,31.2,37,0.00,,,0.00,Rainwise IP-100,2013-06-22 19:22:00,
2013-06-22 14:27:00,93.7,63.5,28.46,SSE,157,19.8,28.9,37,0.00,,,0.00,Rainwise IP-100,2013-06-22 19:27:00,
2013-06-22 14:32:00,93.6,63.5,28.46,SE,135,27.3,27.7,37,0.00,,,0.00,Rainwise IP-100,2013-06-22 19:32:00,
2013-06-22 14:37:00,93.7,63.0,28.46,SSE,157,26.3,33.3,36,0.00,,,0.00,Rainwise IP-100,2013-06-22 19:37:00,
2013-06-22 14:43:00,93.7,63.0,28.45,South,180,23.1,29.8,36,0.00,,,0.00,Rainwise IP-100,2013-06-22 19:43:00,
2013-06-22 14:48:00,94.1,62.5,28.45,SSE,157,21.5,29.1,35,0.00,,,0.00,Rainwise IP-100,2013-06-22 19:48:00,
2013-06-22 14:53:00,94.2,62.5,28.45,SSE,157,25.9,28.4,35,0.00,,,0.00,Rainwise IP-100,2013-06-22 19:53:00,
2013-06-22 14:58:00,94.4,62.5,28.45,South,180,14.2,31.7,35,0.00,,,0.00,Rainwise IP-100,2013-06-22 19:58:00,
2013-06-22 15:03:00,94.8,63.0,28.45,SSE,157,26.8,33.3,35,0.00,,,0.00,Rainwise IP-100,2013-06-22 20:03:00,
2013-06-22 15:08:00,94.9,62.0,28.45,SSE,157,24.5,28.9,34,0.00,,,0.00,Rainwise IP-100,2013-06-22 20:08:00,
2013-06-22 15:13:00,94.8,63.0,28.45,SSE,157,14.7,29.8,35,0.00,,,0.00,Rainwise IP-100,2013-06-22 20:13:00,
2013-06-22 15:18:00,95.0,63.0,28.45,SSE,157,15.4,26.1,35,0.00,,,0.00,Rainwise IP-100,2013-06-22 20:18:00,
2013-06-22 15:23:00,95.2,64.0,28.45,SSE,157,19.8,28.4,36,0.00,,,0.00,Rainwise IP-100,2013-06-22 20:23:00,
2013-06-22 15:28:00,95.3,63.5,28.44,SSE,157,24.7,32.6,35,0.00,,,0.00,Rainwise IP-100,2013-06-22 20:28:00,
2013-06-22 15:33:00,94.8,63.0,28.44,SSE,157,21.5,32.6,35,0.00,,,0.00,Rainwise IP-100,2013-06-22 20:33:00,
2013-06-22 15:38:00,94.3,62.5,28.45,SSE,157,29.8,33.3,35,0.00,,,0.00,Rainwise IP-100,2013-06-22 20:38:00,
2013-06-22 15:44:00,94.2,63.0,28.44,South,180,17.0,31.2,36,0.00,,,0.00,Rainwise IP-100,2013-06-22 20:44:00,
2013-06-22 15:49:00,94.4,63.5,28.44,SSE,157,29.4,35.9,36,0.00,,,0.00,Rainwise IP-100,2013-06-22 20:49:00,
2013-06-22 15:54:00,94.6,63.5,28.44,South,180,19.4,35.9,36,0.00,,,0.00,Rainwise IP-100,2013-06-22 20:54:00,
2013-06-22 15:59:00,94.4,63.5,28.44,SSE,157,20.1,24.9,36,0.00,,,0.00,Rainwise IP-100,2013-06-22 20:59:00,
2013-06-22 16:04:00,93.9,64.0,28.43,SSE,157,14.9,27.5,37,0.00,,,0.00,Rainwise IP-100,2013-06-22 21:04:00,
2013-06-22 16:09:00,93.9,64.0,28.43,SE,135,12.1,29.6,37,0.00,,,0.00,Rainwise IP-100,2013-06-22 21:09:00,
2013-06-22 16:14:00,93.8,63.5,28.44,SSE,157,25.4,29.1,37,0.00,,,0.00,Rainwise IP-100,2013-06-22 21:14:00,
2013-06-22 16:19:00,93.8,63.5,28.44,SSE,157,24.9,31.2,37,0.00,,,0.00,Rainwise IP-100,2013-06-22 21:19:00,
2013-06-22 16:24:00,93.7,63.5,28.43,South,180,16.6,31.9,37,0.00,,,0.00,Rainwise IP-100,2013-06-22 21:24:00,
2013-06-22 16:29:00,93.8,63.5,28.43,SSE,157,15.6,25.6,37,0.00,,,0.00,Rainwise IP-100,2013-06-22 21:29:00,
2013-06-22 16:34:00,93.6,64.0,28.42,SSE,157,18.7,34.3,38,0.00,,,0.00,Rainwise IP-100,2013-06-22 21:34:00,
2013-06-22 16:39:00,93.5,63.5,28.42,SSE,157,30.1,33.6,37,0.00,,,0.00,Rainwise IP-100,2013-06-22 21:39:00,
2013-06-22 16:45:00,93.2,63.0,28.43,SSE,157,17.5,36.4,37,0.00,,,0.00,Rainwise IP-100,2013-06-22 21:45:00,
2013-06-22 16:50:00,92.9,63.0,28.42,SSE,157,16.6,29.8,37,0.00,,,0.00,Rainwise IP-100,2013-06-22 21:50:00,
2013-06-22 16:55:00,92.8,63.5,28.43,SSE,157,20.3,30.5,38,0.00,,,0.00,Rainwise IP-100,2013-06-22 21:55:00,
2013-06-22 17:00:00,92.9,63.0,28.43,SSE,157,23.6,30.8,37,0.00,,,0.00,Rainwise IP-100,2013-06-22 22:00:00,
2013-06-22 17:05:00,92.8,62.5,28.43,ESE,112,20.1,29.1,37,0.00,,,0.00,Rainwise IP-100,2013-06-22 22:05:00,
2013-06-22 17:10:00,92.9,63.0,28.43,SSE,157,18.0,34.3,37,0.00,,,0.00,Rainwise IP-100,2013-06-22 22:10:00,
2013-06-22 17:15:00,92.9,63.0,28.42,SE,135,20.8,33.1,37,0.00,,,0.00,Rainwise IP-100,2013-06-22 22:15:00,
2013-06-22 17:20:00,92.8,63.5,28.42,South,180,24.2,30.1,38,0.00,,,0.00,Rainwise IP-100,2013-06-22 22:20:00,
2013-06-22 17:25:00,93.2,63.0,28.42,SSE,157,25.9,31.9,37,0.00,,,0.00,Rainwise IP-100,2013-06-22 22:25:00,
2013-06-22 17:30:00,93.2,63.0,28.42,SSE,157,20.3,31.2,37,0.00,,,0.00,Rainwise IP-100,2013-06-22 22:30:00,
2013-06-22 17:35:00,92.8,62.5,28.42,SSE,157,27.3,34.3,37,0.00,,,0.00,Rainwise IP-100,2013-06-22 22:35:00,
2013-06-22 17:40:00,92.5,62.5,28.41,SSE,157,24.2,32.6,37,0.00,,,0.00,Rainwise IP-100,2013-06-22 22:40:00,
2013-06-22 17:46:00,92.4,62.5,28.42,SSE,157,17.3,28.0,37,0.00,,,0.00,Rainwise IP-100,2013-06-22 22:46:00,
2013-06-22 17:51:00,92.3,63.0,28.42,SSE,157,17.5,26.3,38,0.00,,,0.00,Rainwise IP-100,2013-06-22 22:51:00,
2013-06-22 17:56:00,92.4,62.5,28.42,SSE,157,20.5,30.8,37,0.00,,,0.00,Rainwise IP-100,2013-06-22 22:56:00,
2013-06-22 18:01:00,92.5,62.5,28.41,SSE,157,18.2,27.7,37,0.00,,,0.00,Rainwise IP-100,2013-06-22 23:01:00,
2013-06-22 18:06:00,92.4,63.0,28.42,SSE,157,27.0,29.6,38,0.00,,,0.00,Rainwise IP-100,2013-06-22 23:06:00,
2013-06-22 18:11:00,92.3,63.0,28.41,SSE,157,22.4,31.7,38,0.00,,,0.00,Rainwise IP-100,2013-06-22 23:11:00,
2013-06-22 18:16:00,92.0,62.5,28.41,SSE,157,15.9,29.6,38,0.00,,,0.00,Rainwise IP-100,2013-06-22 23:16:00,
2013-06-22 18:21:00,91.8,62.5,28.41,SSE,157,19.6,26.3,38,0.00,,,0.00,Rainwise IP-100,2013-06-22 23:21:00,
2013-06-22 18:26:00,91.6,62.5,28.41,SSE,157,14.9,29.4,38,0.00,,,0.00,Rainwise IP-100,2013-06-22 23:26:00,
2013-06-22 18:31:00,91.5,62.5,28.42,South,180,14.7,31.5,38,0.00,,,0.00,Rainwise IP-100,2013-06-22 23:31:00,
2013-06-22 18:36:00,91.4,62.5,28.41,SSE,157,18.4,29.1,38,0.00,,,0.00,Rainwise IP-100,2013-06-22 23:36:00,
2013-06-22 18:41:00,91.3,62.0,28.40,South,180,22.4,31.7,38,0.00,,,0.00,Rainwise IP-100,2013-06-22 23:41:00,
2013-06-22 18:47:00,91.0,62.5,28.41,SSE,157,18.0,30.8,39,0.00,,,0.00,Rainwise IP-100,2013-06-22 23:47:00,
2013-06-22 18:52:00,90.7,62.5,28.41,SSE,157,21.2,28.0,39,0.00,,,0.00,Rainwise IP-100,2013-06-22 23:52:00,
2013-06-22 18:57:00,90.5,62.5,28.40,SE,135,21.7,25.4,39,0.00,,,0.00,Rainwise IP-100,2013-06-22 23:57:00,
2013-06-22 19:02:00,90.5,63.0,28.40,SSE,157,20.8,23.8,40,0.00,,,0.00,Rainwise IP-100,2013-06-23 00:02:00,
2013-06-22 19:07:00,90.5,63.0,28.40,SSE,157,19.6,25.9,40,0.00,,,0.00,Rainwise IP-100,2013-06-23 00:07:00,
2013-06-22 19:12:00,90.3,63.0,28.40,SSE,157,17.5,27.0,40,0.00,,,0.00,Rainwise IP-100,2013-06-23 00:12:00,
2013-06-22 19:17:00,89.8,62.0,28.40,SSE,157,17.5,26.3,40,0.00,,,0.00,Rainwise IP-100,2013-06-23 00:17:00,
2013-06-22 19:22:00,89.2,62.5,28.41,SSE,157,15.6,24.9,41,0.00,,,0.00,Rainwise IP-100,2013-06-23 00:22:00,
2013-06-22 19:27:00,89.0,62.5,28.40,SSE,157,17.7,26.6,41,0.00,,,0.00,Rainwise IP-100,2013-06-23 00:27:00,
2013-06-22 19:32:00,88.8,62.0,28.40,SSE,157,23.1,28.0,41,0.00,,,0.00,Rainwise IP-100,2013-06-23 00:32:00,
2013-06-22 19:37:00,88.6,62.0,28.40,SSE,157,16.1,23.8,41,0.00,,,0.00,Rainwise IP-100,2013-06-23 00:37:00,
2013-06-22 19:42:00,88.4,62.0,28.40,South,180,26.3,30.1,41,0.00,,,0.00,Rainwise IP-100,2013-06-23 00:42:00,
2013-06-22 19:48:00,88.1,62.0,28.40,SSE,157,21.7,30.1,42,0.00,,,0.00,Rainwise IP-100,2013-06-23 00:48:00,
2013-06-22 19:53:00,87.8,62.0,28.40,SSE,157,22.6,27.3,42,0.00,,,0.00,Rainwise IP-100,2013-06-23 00:53:00,
2013-06-22 19:58:00,87.5,61.5,28.41,SSE,157,20.5,25.4,42,0.00,,,0.00,Rainwise IP-100,2013-06-23 00:58:00,
2013-06-22 20:03:00,87.3,61.5,28.41,SSE,157,19.8,25.6,42,0.00,,,0.00,Rainwise IP-100,2013-06-23 01:03:00,
2013-06-22 20:08:00,87.1,61.5,28.41,SSE,157,17.5,24.7,42,0.00,,,0.00,Rainwise IP-100,2013-06-23 01:08:00,
2013-06-22 20:13:00,86.9,61.5,28.41,SSE,157,18.4,26.6,43,0.00,,,0.00,Rainwise IP-100,2013-06-23 01:13:00,
2013-06-22 20:18:00,86.7,61.5,28.41,SSE,157,12.1,24.9,43,0.00,,,0.00,Rainwise IP-100,2013-06-23 01:18:00,
2013-06-22 20:23:00,86.5,61.5,28.41,SSE,157,11.7,22.4,43,0.00,,,0.00,Rainwise IP-100,2013-06-23 01:23:00,
2013-06-22 20:28:00,86.2,61.0,28.41,SSE,157,11.2,21.7,43,0.00,,,0.00,Rainwise IP-100,2013-06-23 01:28:00,
2013-06-22 20:33:00,86.0,60.5,28.41,SSE,157,16.8,22.4,42,0.00,,,0.00,Rainwise IP-100,2013-06-23 01:33:00,
2013-06-22 20:38:00,85.9,60.5,28.41,SSE,157,12.1,24.0,42,0.00,,,0.00,Rainwise IP-100,2013-06-23 01:38:00,
2013-06-22 20:43:00,85.7,60.0,28.41,SSW,202,12.4,19.1,42,0.00,,,0.00,Rainwise IP-100,2013-06-23 01:43:00,
2013-06-22 20:49:00,85.5,60.0,28.41,SSE,157,10.0,23.1,42,0.00,,,0.00,Rainwise IP-100,2013-06-23 01:49:00,
2013-06-22 20:54:00,85.2,60.0,28.41,SSE,157,13.8,19.6,43,0.00,,,0.00,Rainwise IP-100,2013-06-23 01:54:00,
2013-06-22 20:59:00,85.1,60.0,28.41,SSE,157,12.8,22.2,43,0.00,,,0.00,Rainwise IP-100,2013-06-23 01:59:00,
2013-06-22 21:04:00,84.9,60.0,28.42,SSE,157,11.9,21.9,43,0.00,,,0.00,Rainwise IP-100,2013-06-23 02:04:00,
2013-06-22 21:09:00,84.7,60.0,28.42,SSE,157,16.3,19.1,43,0.00,,,0.00,Rainwise IP-100,2013-06-23 02:09:00,
2013-06-22 21:14:00,84.5,60.5,28.42,SSE,157,16.1,23.3,44,0.00,,,0.00,Rainwise IP-100,2013-06-23 02:14:00,
2013-06-22 21:19:00,84.4,60.0,28.42,SSE,157,17.7,21.9,44,0.00,,,0.00,Rainwise IP-100,2013-06-23 02:19:00,
2013-06-22 21:24:00,84.3,60.0,28.42,SSE,157,13.3,23.8,44,0.00,,,0.00,Rainwise IP-100,2013-06-23 02:24:00,
2013-06-22 21:29:00,84.1,60.5,28.43,SSE,157,17.5,27.5,45,0.00,,,0.00,Rainwise IP-100,2013-06-23 02:29:00,
2013-06-22 21:34:00,84.0,60.5,28.42,SSE,157,15.9,21.9,45,0.00,,,0.00,Rainwise IP-100,2013-06-23 02:34:00,
2013-06-22 21:39:00,84.0,61.0,28.42,SSE,157,14.2,22.2,46,0.00,,,0.00,Rainwise IP-100,2013-06-23 02:39:00,
2013-06-22 21:44:00,83.9,61.0,28.43,SSE,157,16.8,24.7,46,0.00,,,0.00,Rainwise IP-100,2013-06-23 02:44:00,
2013-06-22 21:50:00,83.7,61.0,28.42,SSE,157,15.4,24.2,46,0.00,,,0.00,Rainwise IP-100,2013-06-23 02:50:00,
2013-06-22 21:55:00,83.6,60.5,28.43,SSE,157,17.5,24.7,46,0.00,,,0.00,Rainwise IP-100,2013-06-23 02:55:00,
2013-06-22 22:00:00,83.5,61.5,28.43,South,180,14.0,24.7,47,0.00,,,0.00,Rainwise IP-100,2013-06-23 03:00:00,
2013-06-22 22:05:00,83.3,61.5,28.43,SSE,157,18.2,22.4,48,0.00,,,0.00,Rainwise IP-100,2013-06-23 03:05:00,
2013-06-22 22:10:00,83.2,62.0,28.43,SSE,157,16.6,25.2,49,0.00,,,0.00,Rainwise IP-100,2013-06-23 03:10:00,
2013-06-22 22:15:00,83.1,62.5,28.43,SSE,157,11.4,27.3,50,0.00,,,0.00,Rainwise IP-100,2013-06-23 03:15:00,
2013-06-22 22:20:00,83.0,63.0,28.43,SSE,157,14.0,22.2,51,0.00,,,0.00,Rainwise IP-100,2013-06-23 03:20:00,
2013-06-22 22:25:00,82.7,63.5,28.43,SSE,157,14.9,21.9,52,0.00,,,0.00,Rainwise IP-100,2013-06-23 03:25:00,
2013-06-22 22:30:00,82.5,63.5,28.44,SE,135,10.0,19.8,53,0.00,,,0.00,Rainwise IP-100,2013-06-23 03:30:00,
2013-06-22 22:35:00,82.4,64.0,28.44,SE,135,15.9,21.0,54,0.00,,,0.00,Rainwise IP-100,2013-06-23 03:35:00,
2013-06-22 22:40:00,82.3,64.5,28.44,SSE,157,18.4,26.8,55,0.00,,,0.00,Rainwise IP-100,2013-06-23 03:40:00,
2013-06-22 22:45:00,82.3,64.5,28.44,SSE,157,10.3,24.5,55,0.00,,,0.00,Rainwise IP-100,2013-06-23 03:45:00,
2013-06-22 22:51:00,82.2,64.5,28.44,SSE,157,8.4,23.6,55,0.00,,,0.00,Rainwise IP-100,2013-06-23 03:51:00,
2013-06-22 22:56:00,82.0,65.0,28.44,SSE,157,16.8,25.4,56,0.00,,,0.00,Rainwise IP-100,2013-06-23 03:56:00,
2013-06-22 23:01:00,81.8,64.5,28.44,SE,135,10.5,19.8,56,0.00,,,0.00,Rainwise IP-100,2013-06-23 04:01:00,
2013-06-22 23:02:00,81.8,64.5,28.44,SSE,157,14.2,19.8,56,0.00,,,0.00,Rainwise IP-100,2013-06-23 04:02:00,
2013-06-22 23:03:00,81.7,65.0,28.44,SSE,157,14.2,19.8,57,0.00,,,0.00,Rainwise IP-100,2013-06-23 04:03:00,
2013-06-22 23:08:00,81.5,65.0,28.44,SSE,157,19.1,20.8,57,0.00,,,0.00,Rainwise IP-100,2013-06-23 04:08:00,
2013-06-22 23:09:00,81.5,65.0,28.44,SE,135,18.4,20.8,57,0.00,,,0.00,Rainwise IP-100,2013-06-23 04:09:00,
2013-06-22 23:10:00,81.4,65.0,28.44,SSE,157,11.9,20.8,57,0.00,,,0.00,Rainwise IP-100,2013-06-23 04:10:00,
2013-06-22 23:15:00,81.2,65.5,28.45,SSE,157,13.3,19.1,58,0.00,,,0.00,Rainwise IP-100,2013-06-23 04:15:00,
2013-06-22 23:20:00,81.0,65.5,28.44,SSE,157,18.0,20.5,59,0.00,,,0.00,Rainwise IP-100,2013-06-23 04:20:00,
2013-06-22 23:25:00,80.8,65.5,28.44,SE,135,12.4,18.0,59,0.00,,,0.00,Rainwise IP-100,2013-06-23 04:25:00,
2013-06-22 23:30:00,80.6,65.5,28.44,SSE,157,15.2,18.9,60,0.00,,,0.00,Rainwise IP-100,2013-06-23 04:30:00,
2013-06-22 23:35:00,80.5,66.0,28.45,SE,135,15.2,23.1,61,0.00,,,0.00,Rainwise IP-100,2013-06-23 04:35:00,
2013-06-22 23:40:00,80.4,66.0,28.45,SSE,157,14.2,21.9,61,0.00,,,0.00,Rainwise IP-100,2013-06-23 04:40:00,
2013-06-22 23:45:00,80.3,66.0,28.45,SE,135,13.8,22.2,62,0.00,,,0.00,Rainwise IP-100,2013-06-23 04:45:00,
2013-06-22 23:51:00,80.1,66.0,28.44,SE,135,16.8,20.3,62,0.00,,,0.00,Rainwise IP-100,2013-06-23 04:51:00,
2013-06-22 23:56:00,80.1,66.0,28.45,SSE,157,17.7,23.8,62,0.00,,,0.00,Rainwise IP-100,2013-06-23 04:56:00,